Regional Weather Roundup
Issued by NWS

Home | Current Version | Previous Version | Graphics & Text | Print | Product List | Glossary On
Versions: 1 2 3 4 5 6 7 8 9 10 11 12 13 14 15 16 17 18 19 20 21 22 23 24 25 26 27 28 29 30 31 32 33 34 35 36 37 38 39 40 41 42 43 44 45 46 47 48 49 50
000
ASUS43 KLOT 030600
RWRIL

ILLINOIS REGIONAL WEATHER ROUNDUP
NATIONAL WEATHER SERVICE CHICAGO/ROMEOVILLE IL
1200 AM CST TUE MAR 03 2015

NOTE: "FAIR" INDICATES FEW OR NO CLOUDS BELOW 12,000 FEET WITH NO
SIGNIFICANT WEATHER AND/OR OBSTRUCTIONS TO VISIBILITY.

* THESE STATIONS ARE NOT UNDER NWS QUALITY CONTROL. THEY ALSO MAY NOT
  REPORT WEATHER SUCH AS PRECIPITATION OR FOG.

ILZ001-002-007-009-015-016-024-030700-
NORTHWEST ILLINOIS

CITY           SKY/WX    TMP DP  RH WIND       PRES   REMARKS
MOLINE         FAIR      26  18  71 SE13      30.14F WCI  15
6HR MIN TEMP:  26; 6HR MAX TEMP:  27;

STERLING*      MOCLDY    25  19  80 S6        30.20F WCI  18
$$

ILZ003-004-008-010-011-017-018-030700-
NORTH CENTRAL ILLINOIS

CITY           SKY/WX    TMP DP  RH WIND       PRES   REMARKS
ROCKFORD       CLOUDY    25  16  68 SE7       30.21F WCI  17
6HR MIN TEMP:  24; 6HR MAX TEMP:  25;

FREEPORT*      CLOUDY    24  17  77 SE7       30.19F WCI  15
$$

ILZ005-006-012>014-019>023-030700-
NORTHEAST ILLINOIS

CITY           SKY/WX    TMP DP  RH WIND       PRES   REMARKS
CHICAGO-OHARE  CLOUDY    26  15  63 S9        30.22F WCI  17
6HR MIN TEMP:  25; 6HR MAX TEMP:  28;

CHICAGO-MIDWAY CLOUDY    28  16  60 SE7       30.24F WCI  21
6HR MIN TEMP:  28; 6HR MAX TEMP:  30;

AURORA         CLOUDY    25  16  68 SE8       30.22F WCI  16
6HR MIN TEMP:  24; 6HR MAX TEMP:  27;

WAUKEGAN       NOT AVBL
DUPAGE AIRPORT CLOUDY    25  14  63 S9        30.21F WCI  15
6HR MIN TEMP:  24; 6HR MAX TEMP:  27;

WHEELING       CLOUDY    26  14  60 SE7       30.24F WCI  18
6HR MIN TEMP:  26; 6HR MAX TEMP:  29;

NORTHERLY ISL    N/A     27  16  63 SE9         N/A  WCI  18
$$

LMZ740>746-030700-
SOUTHERN LAKE MICHIGAN

STATION/POSITION SKY/WX   TEMP    WIND        PRES    VSBY  WAVE
                          AIR SEA DIR/SP/G                  HT/PER
                          (F)     (DEG/KT/KT) (MB)    (MI)  (FT/S)
WAUKEGAN HARBOR            27     180/  9/ 11   N/A
HARRISON CRIB              27     170/ 10/ 12   N/A
BURNHAM HARBOR             27     150/  4/  8   N/A
CALUMET HARBOR                                1023.3F
MICHIGAN CITY              26     140/  7/  9   N/A
$$

ILZ025>027-034>036-040-047-049-050-058-095>099-030700-
WEST-CENTRAL ILLINOIS

CITY           SKY/WX    TMP DP  RH WIND       PRES   REMARKS
QUINCY         CLOUDY    28  20  71 SE14      30.12F WCI  17
$$

ILZ028>032-037-038-041>044-048-051>054-059>061-030700-
CENTRAL ILLINOIS

CITY           SKY/WX    TMP DP  RH WIND       PRES   REMARKS
DECATUR        CLOUDY    26  19  74 E8        30.22F WCI  18
PEORIA         MIX PCPN  28  16  60 SE8       30.20F WCI  20
6HR MIN TEMP:  27; 6HR MAX TEMP:  29; 6HR PCP: TRACE;

SPRINGFIELD    MIX PCPN  28  20  71 SE10      30.18F WCI  19
6HR MIN TEMP:  27; 6HR MAX TEMP:  30; 6HR PCP: TRACE;

TAYLORVILLE    NOT AVBL
$$

ILZ033-039-045-046-055>057-062-063-030700-
EAST-CENTRAL ILLINOIS

CITY           SKY/WX    TMP DP  RH WIND       PRES   REMARKS
CHAMPAIGN      FAIR      25  18  74 E5        30.24S WCI  19
MATTOON        MOCLDY    28  16  60 SE12      30.20F WCI  18
$$

ILZ079-100>102-030700-
SOUTHWEST ILLINOIS

CITY           SKY/WX    TMP DP  RH WIND       PRES   REMARKS
BELLEVILLE     CLOUDY    30  23  76 SE9       30.18F WCI  22
CAHOKIA*       CLOUDY    32  23  69 SE9       30.19F WCI  24
$$

ILZ064>066-069>071-074>076-080>082-084>086-088>090-092>094-030700-
SOUTH-CENTRAL ILLINOIS

CITY           SKY/WX    TMP DP  RH WIND       PRES   REMARKS
CARBONDALE     CLOUDY    33  24  69 E5        30.22F WCI  29
6HR MIN TEMP:  32; 6HR MAX TEMP:  34;

MT. VERNON     CLOUDY    30  19  64 E5        30.22F WCI  25
$$

ILZ067-068-072-073-078-083-087-091-030700-
SOUTHEAST ILLINOIS

CITY           SKY/WX    TMP DP  RH WIND       PRES   REMARKS
LAWRENCEVILLE  CLOUDY    27  19  72 E6        30.25F WCI  20
$$

ABBREVIATIONS USED IN REMARKS
   TC - TEMPERATURE IN CELSIUS
  WCI - WIND CHILL INDEX
   HX - HEAT INDEX
  VSB - VISIBILITY
$$



USA.gov is the U.S. government's official web portal to all federal, state and local government web resources and services.